Tracking 29892 objects as of 21-Nov-2024
HD Live streaming from Space Station
objects crossing your sky now

COSMOS 2038

Track COSMOS 2038 now!
10-day predictions
COSMOS 2038 is classified as:


NORAD ID: 20232
Int'l Code: 1989-074A
Perigee: 1,399.5 km
Apogee: 1,416.2 km
Inclination: 82.6 °
Period: 113.8 minutes
Semi major axis: 7778 km
RCS: 1.1763 m2 (large)
Launch date: September 14, 1989
Source: Commonwealth of Independent States (former USSR) (CIS)
Launch site: PLESETSK MISSILE AND SPACE COMPLEX (PKMTR)
Your satellite tracking list
Your tracking list is empty




NASA's NSSDC Master Catalog

Two Line Element Set (TLE):
1 20232U 89074A   24325.10108691  .00000034  00000-0  12719-3 0  9999
2 20232  82.5759 198.0375 0010688 291.1187 222.1790 12.65407779598858
Source of the keplerian elements: AFSPC